When you browse on this site, cookies collect data to enhance your experience and personalize the content and advertising you see.
Visit our Privacy Policy to learn more. By continuing to use the site, you agree to this use of cookies and data.
EN

Hourly Weather Punta Cana

Today, 12 July, Sunday

Time Temperature Precipitation Wind Pressure Humidity
00:00 +28°C° 0.1 mm 6 mps 763 mmHg 89%
01:00 +28°C° 0 mm 5 mps 762 mmHg 90%
02:00 +28°C° 0 mm 5 mps 762 mmHg 90%
03:00 +27°C° 0 mm 5 mps 762 mmHg 90%
04:00 +27°C° 0 mm 5 mps 762 mmHg 90%
05:00 +28°C° 0.6 mm 5 mps 762 mmHg 86%
06:00 +29°C° 0.6 mm 6 mps 762 mmHg 82%
07:00 +30°C° 0.6 mm 6 mps 763 mmHg 79%
08:00 +30°C° 0.7 mm 5 mps 763 mmHg 76%
09:00 +32°C° 0.7 mm 5 mps 763 mmHg 74%
10:00 +33°C° 0.7 mm 5 mps 763 mmHg 71%
11:00 +33°C° 0.1 mm 4 mps 763 mmHg 68%
12:00 +34°C° 0.1 mm 4 mps 762 mmHg 65%
13:00 +34°C° 0.1 mm 4 mps 762 mmHg 61%
14:00 +34°C° 0.1 mm 4 mps 762 mmHg 63%
15:00 +33°C° 0.1 mm 4 mps 761 mmHg 64%
16:00 +33°C° 0.1 mm 4 mps 761 mmHg 66%
17:00 +32°C° 0.2 mm 4 mps 761 mmHg 72%
18:00 +30°C° 0.2 mm 3 mps 762 mmHg 79%
19:00 +29°C° 0.2 mm 3 mps 762 mmHg 85%
20:00 +28°C° 0 mm 3 mps 762 mmHg 86%
21:00 +28°C° 0 mm 3 mps 763 mmHg 87%
22:00 +28°C° 0 mm 3 mps 763 mmHg 87%
23:00 +28°C° 0.1 mm 3 mps 763 mmHg 89%

Tomorrow, 13 July, Monday

Time Temperature Precipitation Wind Pressure Humidity
00:00 +28°C° 0.1 mm 3 mps 763 mmHg 90%
01:00 +28°C° 0.1 mm 3 mps 762 mmHg 92%
02:00 +28°C° 0.2 mm 3 mps 762 mmHg 92%
03:00 +28°C° 0.2 mm 3 mps 762 mmHg 91%
04:00 +28°C° 0.2 mm 3 mps 762 mmHg 91%
05:00 +29°C° 0 mm 4 mps 763 mmHg 89%
06:00 +29°C° 0 mm 4 mps 763 mmHg 86%
07:00 +30°C° 0 mm 4 mps 763 mmHg 83%
08:00 +32°C° 0 mm 5 mps 763 mmHg 77%
09:00 +33°C° 0 mm 5 mps 764 mmHg 71%
10:00 +34°C° 0 mm 5 mps 764 mmHg 64%
11:00 +34°C° 0 mm 5 mps 763 mmHg 64%
12:00 +34°C° 0 mm 5 mps 763 mmHg 64%
13:00 +34°C° 0 mm 5 mps 763 mmHg 63%
14:00 +34°C° 0 mm 5 mps 762 mmHg 66%
15:00 +33°C° 0 mm 6 mps 762 mmHg 68%
16:00 +33°C° 0 mm 6 mps 761 mmHg 70%
17:00 +32°C° 0.1 mm 6 mps 762 mmHg 76%
18:00 +30°C° 0.1 mm 5 mps 762 mmHg 81%
19:00 +29°C° 0.1 mm 4 mps 763 mmHg 87%
20:00 +29°C° 0.1 mm 5 mps 763 mmHg 88%
21:00 +28°C° 0.1 mm 5 mps 763 mmHg 88%
22:00 +28°C° 0.1 mm 6 mps 763 mmHg 89%
23:00 +28°C° 0 mm 5 mps 763 mmHg 89%

Day after tomorrow, 14 July, Tuesday

Time Temperature Precipitation Wind Pressure Humidity
00:00 +28°C° 0 mm 5 mps 763 mmHg 88%
01:00 +28°C° 0 mm 4 mps 763 mmHg 88%
02:00 +28°C° 0 mm 4 mps 762 mmHg 88%
03:00 +28°C° 0 mm 4 mps 762 mmHg 88%
04:00 +27°C° 0 mm 4 mps 762 mmHg 88%
05:00 +28°C° 0 mm 4 mps 762 mmHg 84%
06:00 +29°C° 0 mm 5 mps 763 mmHg 81%
07:00 +30°C° 0 mm 5 mps 763 mmHg 78%
08:00 +32°C° 0 mm 5 mps 763 mmHg 73%
09:00 +33°C° 0 mm 5 mps 763 mmHg 67%
10:00 +34°C° 0 mm 5 mps 763 mmHg 62%
11:00 +34°C° 0 mm 4 mps 763 mmHg 61%
12:00 +34°C° 0 mm 4 mps 763 mmHg 59%
13:00 +35°C° 0 mm 3 mps 762 mmHg 58%
14:00 +34°C° 0 mm 4 mps 762 mmHg 61%
15:00 +33°C° 0 mm 4 mps 762 mmHg 64%
16:00 +33°C° 0 mm 4 mps 761 mmHg 67%
17:00 +32°C° 0.1 mm 4 mps 762 mmHg 73%
18:00 +30°C° 0.1 mm 5 mps 762 mmHg 79%
19:00 +28°C° 0.1 mm 5 mps 763 mmHg 86%
20:00 +28°C° 0.2 mm 6 mps 763 mmHg 87%
21:00 +28°C° 0.2 mm 6 mps 763 mmHg 88%
22:00 +28°C° 0.2 mm 6 mps 763 mmHg 90%
23:00 +28°C° 0.1 mm 6 mps 763 mmHg 89%

15 July, Wednesday

Time Temperature Precipitation Wind Pressure Humidity
00:00 +28°C° 0.1 mm 6 mps 762 mmHg 89%
01:00 +28°C° 0.1 mm 6 mps 762 mmHg 88%
02:00 +27°C° 0 mm 6 mps 762 mmHg 89%
03:00 +27°C° 0 mm 5 mps 762 mmHg 89%
04:00 +27°C° 0 mm 5 mps 762 mmHg 89%
05:00 +28°C° 0 mm 5 mps 762 mmHg 85%
06:00 +29°C° 0 mm 5 mps 762 mmHg 81%
07:00 +30°C° 0 mm 6 mps 762 mmHg 77%
08:00 +30°C° 0 mm 6 mps 762 mmHg 72%
09:00 +32°C° 0 mm 5 mps 762 mmHg 68%
10:00 +33°C° 0 mm 5 mps 762 mmHg 64%
11:00 +33°C° 0.2 mm 5 mps 762 mmHg 64%
12:00 +33°C° 0.2 mm 5 mps 762 mmHg 63%
13:00 +34°C° 0.2 mm 5 mps 761 mmHg 63%
14:00 +33°C° 0 mm 5 mps 761 mmHg 64%
15:00 +33°C° 0 mm 5 mps 761 mmHg 65%
16:00 +32°C° 0 mm 5 mps 760 mmHg 66%
17:00 +30°C° 0.1 mm 5 mps 761 mmHg 72%
18:00 +29°C° 0.1 mm 5 mps 761 mmHg 77%
19:00 +28°C° 0.1 mm 5 mps 761 mmHg 82%
20:00 +28°C° 0.1 mm 5 mps 761 mmHg 82%
21:00 +28°C° 0.1 mm 5 mps 762 mmHg 82%
22:00 +28°C° 0.1 mm 5 mps 762 mmHg 82%
23:00 +28°C° 0.2 mm 5 mps 762 mmHg 82%

16 July, Thursday

Time Temperature Precipitation Wind Pressure Humidity
00:00 +28°C° 0.2 mm 5 mps 761 mmHg 83%
01:00 +28°C° 0.2 mm 5 mps 761 mmHg 84%
02:00 +27°C° 0.1 mm 5 mps 761 mmHg 85%
03:00 +27°C° 0.1 mm 5 mps 761 mmHg 86%
04:00 +27°C° 0.1 mm 4 mps 761 mmHg 87%
05:00 +28°C° 0.1 mm 4 mps 761 mmHg 83%
06:00 +29°C° 0.1 mm 5 mps 761 mmHg 78%
07:00 +30°C° 0.1 mm 5 mps 762 mmHg 74%
08:00 +30°C° 0.1 mm 4 mps 762 mmHg 70%
09:00 +32°C° 0.1 mm 4 mps 762 mmHg 65%
10:00 +33°C° 0.1 mm 4 mps 762 mmHg 60%
11:00 +34°C° 0 mm 4 mps 762 mmHg 58%
12:00 +34°C° 0 mm 4 mps 762 mmHg 56%
13:00 +34°C° 0 mm 3 mps 762 mmHg 54%
14:00 +34°C° 0 mm 4 mps 761 mmHg 56%
15:00 +33°C° 0 mm 4 mps 761 mmHg 58%
16:00 +33°C° 0 mm 4 mps 761 mmHg 61%
17:00 +30°C° 0 mm 3 mps 761 mmHg 67%
18:00 +29°C° 0 mm 3 mps 761 mmHg 72%
19:00 +28°C° 0 mm 3 mps 761 mmHg 78%
20:00 +28°C° 0.1 mm 3 mps 762 mmHg 79%
21:00 +28°C° 0.1 mm 3 mps 762 mmHg 81%
22:00 +27°C° 0.1 mm 3 mps 762 mmHg 82%
23:00 +27°C° 0.4 mm 3 mps 762 mmHg 83%

17 July, Friday

Time Temperature Precipitation Wind Pressure Humidity
00:00 +27°C° 0.4 mm 3 mps 762 mmHg 83%
01:00 +27°C° 0.4 mm 3 mps 761 mmHg 84%
02:00 +27°C° 0.1 mm 3 mps 761 mmHg 85%
03:00 +27°C° 0.1 mm 4 mps 761 mmHg 86%
04:00 +27°C° 0.1 mm 4 mps 761 mmHg 86%
05:00 +28°C° 0 mm 4 mps 761 mmHg 82%
06:00 +29°C° 0 mm 4 mps 762 mmHg 78%
07:00 +30°C° 0 mm 4 mps 762 mmHg 73%
08:00 +32°C° 0 mm 4 mps 762 mmHg 69%
09:00 +32°C° 0 mm 4 mps 762 mmHg 64%
10:00 +33°C° 0 mm 4 mps 762 mmHg 59%
11:00 +34°C° 0 mm 4 mps 762 mmHg 58%
12:00 +34°C° 0 mm 4 mps 762 mmHg 57%
13:00 +34°C° 0 mm 3 mps 761 mmHg 55%
14:00 +34°C° 0 mm 4 mps 761 mmHg 58%
15:00 +33°C° 0 mm 4 mps 761 mmHg 61%
16:00 +32°C° 0 mm 4 mps 761 mmHg 63%
17:00 +30°C° 0.1 mm 4 mps 761 mmHg 69%
18:00 +29°C° 0.1 mm 4 mps 761 mmHg 75%
19:00 +28°C° 0.1 mm 4 mps 761 mmHg 82%
20:00 +28°C° 0.7 mm 5 mps 761 mmHg 82%
21:00 +28°C° 0.7 mm 5 mps 762 mmHg 82%
22:00 +28°C° 0.7 mm 5 mps 762 mmHg 83%
23:00 +27°C° 0.3 mm 5 mps 762 mmHg 84%
Show more